Regional Weather Roundup
Issued by NWS

Home | Current Version | Previous Version | Text Only | Print | Product List | Glossary On
Versions: 1 2 3 4 5 6 7 8 9 10 11 12 13 14 15 16 17 18 19 20 21 22 23 24 25 26 27 28 29 30 31 32 33 34 35 36 37 38 39 40 41 42 43 44 45 46 47 48 49 50
000
ASUS43 KTOP 272108
RWRKS

WEATHER ROUNDUP FOR KANSAS
NATIONAL WEATHER SERVICE GOODLAND KS
400 PM CDT WED JUL 27 2016

NOTE:  "FAIR" INDICATES FEW OR NO CLOUDS BELOW 12,000 FEET WITH NO
SIGNIFICANT WEATHER AND/OR OBSTRUCTIONS TO VISIBILITY.

KSZ001>006-013>018-027>032-041>047-272200-
NORTHWEST KANSAS

CITY           SKY/WX    TMP DP  RH WIND       PRES   REMARKS
GOODLAND       SUNNY     89  55  31 SE9       30.08F
HAYS           MOSUNNY   91  66  43 E7        29.98F
HILL CITY      CLOUDY    86  70  58 SE6       30.01F
RUSSELL        MOSUNNY   92  66  42 NE6       29.97F
$$

KSZ061>065-074>080-084>089-272200-
SOUTHWEST KANSAS

CITY           SKY/WX    TMP DP  RH WIND       PRES   REMARKS
DODGE CITY     PTSUNNY   93  64  38 S6        30.00F
ELKHART          N/A     96  63  33 S7          N/A  HX  97
GARDEN CITY    MOSUNNY   92  67  43 VRB5      30.01F HX  95
GREAT BEND     SUNNY     90  66  45 NE6       29.98F
LIBERAL        PTSUNNY   93  63  36 E10       30.00F
PRATT          MOSUNNY   90  64  41 NE5       29.97F
$$

KSZ066>073-081>083-090>101-272200-
SOUTHEAST KANSAS

CITY           SKY/WX    TMP DP  RH WIND       PRES   REMARKS
CHANUTE        SUNNY     90  74  59 CALM      29.93F HX  99
COFFEYVILLE    MOSUNNY   91  73  55 CALM      29.93F HX  99
HUTCHINSON     MOSUNNY   93  69  45 N6        29.97F HX  98
MEDICINE LODGE   N/A     95  67  39 NE13      29.94F HX  99
NEWTON         CLOUDY    86  73  65 E6        29.98F
PARSONS        SUNNY     91  74  57 CALM      29.94F HX 100
WICHITA INTL   PTSUNNY   93  69  45 NE8       29.94F HX  98
WICHITA JABRA  MOSUNNY   90  71  53 CALM      29.95F HX  96
WICHITA MCCONL PTSUNNY   91  70  50 NE7       29.95F HX  96
WINFIELD       MOSUNNY   92  70  48 NE9       29.94F HX  97
$$

KSZ007>012-019>026-033>040-048>060-102>105-272200-
NORTHEAST KANSAS

CITY           SKY/WX    TMP DP  RH WIND       PRES   REMARKS
CONCORDIA      MOSUNNY   88  69  53 CALM      29.98F
EMPORIA        MOSUNNY   89  69  51 SE3       29.96F
LAWRENCE       PTSUNNY   92  65  40 NW7       29.94F
MANHATTAN      SUNNY     91  70  49 VRB3      29.97F HX  96
MARYSVILLE     CLOUDY    90  68  48 NW5       29.97F
OLATHE IND     SUNNY     91  64  40 N6        29.96F
OLATHE EXE     SUNNY     90  64  42 VRB6      29.95F
SALINA         MOSUNNY   93  69  45 NE5       29.97F HX  98
TOPEKA BILLARD PTSUNNY   91  68  46 N5        29.95F HX  95
TOPEKA FORBES  MOSUNNY   93  70  46 N5        29.96F HX  99
$$



USA.gov is the U.S. government's official web portal to all federal, state and local government web resources and services.